TimeAKST,TemperatureF,Dew PointF,Humidity,Sea Level PressureIn,VisibilityMPH,Wind Direction,Wind SpeedMPH,Gust SpeedMPH,PrecipitationIn,Events,Conditions,WindDirDegrees,DateUTC
12:53 AM,-35.0,-9999,N/A,30.70,10.0,Calm,Calm,-,N/A,,Clear,0,2013-12-18 09:53:00
1:53 AM,-36.0,-9999,N/A,30.72,10.0,NNW,3.5,-,N/A,,Clear,330,2013-12-18 10:53:00
2:53 AM,-36.9,-9999,N/A,30.72,10.0,NW,4.6,-,N/A,,Clear,320,2013-12-18 11:53:00
3:53 AM,-36.9,-9999,N/A,30.74,10.0,Calm,Calm,-,N/A,,Clear,0,2013-12-18 12:53:00
4:53 AM,-36.9,-9999,N/A,30.72,10.0,NW,3.5,-,N/A,,Clear,310,2013-12-18 13:53:00
5:53 AM,-38.0,-9999,N/A,30.73,10.0,NW,4.6,-,N/A,,Clear,320,2013-12-18 14:53:00
6:53 AM,-38.0,-9999,N/A,30.72,10.0,Calm,Calm,-,N/A,,Clear,0,2013-12-18 15:53:00
7:53 AM,-38.9,-9999,N/A,30.74,10.0,Calm,Calm,-,N/A,,Clear,0,2013-12-18 16:53:00
8:53 AM,-38.9,-9999,N/A,30.70,7.0,WNW,3.5,-,N/A,,Clear,290,2013-12-18 17:53:00
9:53 AM,-38.9,-9999,N/A,30.73,7.0,Calm,Calm,-,N/A,,Clear,0,2013-12-18 18:53:00
10:53 AM,-40.0,-9999,N/A,30.70,3.0,Calm,Calm,-,N/A,,Clear,0,2013-12-18 19:53:00
11:02 AM,-40.0,-9999,N/A,30.36,2.0,Calm,Calm,-,N/A,,Clear,0,2013-12-18 20:02:00
11:09 AM,-38.9,-9999,N/A,30.35,1.5,Calm,Calm,-,N/A,,Clear,0,2013-12-18 20:09:00
11:14 AM,-38.9,-9999,N/A,30.35,3.0,West,3.5,-,N/A,,Clear,270,2013-12-18 20:14:00
11:53 AM,-38.0,-9999,N/A,30.69,7.0,Calm,Calm,-,N/A,,Clear,0,2013-12-18 20:53:00
12:53 PM,-36.0,-9999,N/A,30.68,10.0,Calm,Calm,-,N/A,,Clear,0,2013-12-18 21:53:00
1:53 PM,-32.1,-9999,N/A,30.63,10.0,NNE,4.6,-,N/A,,Clear,20,2013-12-18 22:53:00
2:53 PM,-31.0,-9999,N/A,30.59,10.0,West,3.5,-,N/A,,Clear,280,2013-12-18 23:53:00
3:53 PM,-29.0,-35.0,73,30.57,10.0,Calm,Calm,-,N/A,,Clear,0,2013-12-19 00:53:00
4:53 PM,-27.0,-33.0,73,30.54,10.0,Calm,Calm,-,N/A,,Clear,0,2013-12-19 01:53:00
5:53 PM,-27.0,-33.0,73,30.50,10.0,Calm,Calm,-,N/A,,Clear,0,2013-12-19 02:53:00
6:53 PM,-26.0,-31.0,77,30.47,10.0,Calm,Calm,-,N/A,,Clear,0,2013-12-19 03:53:00
7:53 PM,-24.0,-29.9,74,30.40,10.0,Variable,3.5,-,N/A,,Scattered Clouds,0,2013-12-19 04:53:00
8:53 PM,-22.0,-27.9,74,30.36,10.0,Calm,Calm,-,N/A,,Overcast,0,2013-12-19 05:53:00
9:38 PM,-22.0,-27.9,74,30.03,1.8,Calm,Calm,-,0.00,Snow,Light Snow,0,2013-12-19 06:38:00
9:53 PM,-22.0,-27.0,77,30.32,1.0,Calm,Calm,-,0.00,Snow,Light Snow,0,2013-12-19 06:53:00
10:27 PM,-20.9,-27.0,73,29.99,0.8,Calm,Calm,-,0.01,Snow,Light Snow,0,2013-12-19 07:27:00
10:53 PM,-20.9,-26.0,77,30.27,0.5,Calm,Calm,-,0.03,Snow,Snow,0,2013-12-19 07:53:00
11:02 PM,-20.9,-26.0,77,29.96,0.5,NNW,3.5,-,0.01,Snow,Snow,330,2013-12-19 08:02:00
11:30 PM,-20.0,-25.1,78,29.94,0.8,North,3.5,-,0.03,Snow,Light Snow,10,2013-12-19 08:30:00
11:44 PM,-18.9,-25.1,74,29.94,1.0,Calm,Calm,-,0.04,Snow,Light Snow,0,2013-12-19 08:44:00
11:53 PM,-18.9,-25.1,74,30.23,1.0,Calm,Calm,-,0.05,Snow,Light Snow,0,2013-12-19 08:53:00